Weather History for Dallas Addison, TX

Change the Weather History Date:

Sunday, November 4, 2012

  Actual Average Record
Temperature  
Mean Temperature 64 °F -  
Max Temperature 73 °F 66 °F 82 °F (2003)
Min Temperature 55 °F 51 °F 37 °F (2011)
Degree Days  
Heating Degree Days 1    
Growing Degree Days 14 (Base 50)    
Moisture  
Dew Point 40 °F    
Average Humidity 45    
Maximum Humidity 55    
Minimum Humidity 31    
Precipitation  
Precipitation 0.00 in - - ()
Sea Level Pressure  
Sea Level Pressure 30.10 in    
Wind  
Wind Speed 4 mph (North)    
Max Wind Speed 8 mph    
Max Gust Speed -    
Visibility 11 miles    
Events      
Averages and records for this station are not official NWS values.
T = Trace of Precipitation, MM = Missing Value Source: NWS Daily Summary

Daily Weather History Graph

Daily Weather History Graph

Search for Another Location

Airport:

Trip Planner

Search our weather history database for the weather conditions in past years. The results will help you decide how hot, cold, wet, or windy it might be!

Date:

Astronomy

Nov. 04, 2012 Rise Set
Actual Time 6:48 AM CST 5:32 PM CST
Civil Twilight 6:22 AM CST 5:58 PM CST
Nautical Twilight 5:53 AM CST 6:28 PM CST
Astronomical Twilight 5:24 AM CST 6:57 PM CST
Moon 10:14 PM CST (11/4) 11:29 AM CST (11/4)
Length of Visible Light 11h 35m
Length of Day
10h 44m
Waning Gibbous, 72% of the Moon is Illuminated
Nov 4
Waning Gibbous
Nov 6
Last Quarter
Nov 13
New
Nov 20
First Quarter
Nov 28
Full

Hourly Weather History & Observations

Time (CST) Temp. Dew Point Humidity Pressure Visibility Wind Dir Wind Speed Gust Speed Precip Events Conditions
12:15 AM 62.6 °F 35.6 °F 37% 30.11 in 10.0 mi ENE 6.9 mph - N/A   Clear
12:35 AM 62.6 °F 35.6 °F 37% 30.11 in 10.0 mi NE 4.6 mph - N/A   Clear
12:55 AM 62.6 °F 35.6 °F 37% 30.11 in 10.0 mi NE 5.8 mph - N/A   Clear
1:15 AM 60.8 °F 35.6 °F 39% 30.10 in 10.0 mi North 5.8 mph - N/A   Clear
1:35 AM 60.8 °F 37.4 °F 42% 30.10 in 10.0 mi NNE 5.8 mph - N/A   Clear
1:55 AM 60.8 °F 35.6 °F 39% 30.09 in 10.0 mi NNE 8.1 mph - N/A   Clear
1:15 AM 60.8 °F 35.6 °F 39% 30.10 in 10.0 mi NNE 5.8 mph - N/A   Clear
1:35 AM 59.0 °F 35.6 °F 42% 30.09 in 10.0 mi NNE 5.8 mph - N/A   Clear
1:55 AM 59.0 °F 35.6 °F 42% 30.09 in 10.0 mi North 6.9 mph - N/A   Clear
2:15 AM 59.0 °F 35.6 °F 42% 30.09 in 10.0 mi North 4.6 mph - N/A   Clear
2:35 AM 59.0 °F 35.6 °F 42% 30.10 in 10.0 mi Calm Calm - N/A   Clear
2:55 AM 59.0 °F 35.6 °F 42% 30.11 in 10.0 mi NNE 4.6 mph - N/A   Clear
3:15 AM 57.2 °F 35.6 °F 44% 30.10 in 10.0 mi North 6.9 mph - N/A   Clear
3:35 AM 55.4 °F 37.4 °F 51% 30.10 in 10.0 mi NNW 4.6 mph - N/A   Clear
3:55 AM 55.4 °F 37.4 °F 51% 30.10 in 10.0 mi NNW 3.5 mph - N/A   Clear
4:15 AM 55.4 °F 37.4 °F 51% 30.11 in 10.0 mi Calm Calm - N/A   Clear
4:35 AM 55.4 °F 35.6 °F 47% 30.11 in 10.0 mi NNE 3.5 mph - N/A   Scattered Clouds
4:55 AM 55.4 °F 37.4 °F 51% 30.12 in 10.0 mi Calm Calm - N/A   Scattered Clouds
6:47 AM 55.4 °F 39.2 °F 54% 30.13 in - NNE 6.9 mph - N/A   Mostly Cloudy
7:47 AM 57.2 °F 39.2 °F 51% 30.13 in 10.0 mi Calm Calm - N/A   Scattered Clouds
8:47 AM 59.0 °F 41.0 °F 51% 30.15 in 10.0 mi NE 6.9 mph - N/A   Clear
9:47 AM 62.6 °F 42.8 °F 48% 30.15 in 10.0 mi North - - N/A   Clear
10:47 AM 66.2 °F 42.8 °F 43% 30.15 in 10.0 mi West 3.5 mph - N/A   Clear
11:50 AM 68.0 °F 42.8 °F 40% 30.13 in 13.0 mi West 5.8 mph - N/A   Clear
12:50 PM 69.8 °F 42.8 °F 38% 30.11 in 13.0 mi West 5.8 mph - N/A   Clear
1:47 PM 71.6 °F 42.8 °F 35% 30.09 in 13.0 mi NNW 6.9 mph - N/A   Clear
2:47 PM 73.4 °F 41.0 °F 31% 30.07 in 15.0 mi WNW 4.6 mph - N/A   Clear
4:59 PM 71.6 °F 41.0 °F 33% 30.05 in 15.0 mi West 4.6 mph - N/A   Clear
5:47 PM 69.8 °F 41.0 °F 35% 30.06 in 15.0 mi Calm Calm - N/A   Partly Cloudy
6:48 PM 66.2 °F 41.0 °F 40% 30.07 in 15.0 mi Calm Calm - N/A   Clear
7:47 PM 64.4 °F 42.8 °F 45% 30.08 in 15.0 mi Calm Calm - N/A   Clear
8:47 PM 64.4 °F 46.4 °F 52% 30.08 in 15.0 mi Calm Calm - N/A   Clear
9:15 PM 62.6 °F 44.6 °F 52% 30.08 in 10.0 mi Calm Calm - N/A   Clear
9:35 PM 60.8 °F 42.8 °F 52% 30.08 in 10.0 mi Calm Calm - N/A   Clear
9:47 PM 62.6 °F 46.4 °F 55% 30.08 in 15.0 mi Calm Calm - N/A   Clear
9:55 PM 62.6 °F 42.8 °F 48% 30.08 in 10.0 mi Calm Calm - N/A   Clear
10:15 PM 60.8 °F 44.6 °F 55% 30.08 in 10.0 mi Calm Calm - N/A   Clear
10:35 PM 62.6 °F 44.6 °F 52% 30.08 in 10.0 mi East 3.5 mph - N/A   Clear
10:55 PM 60.8 °F 44.6 °F 55% 30.08 in 10.0 mi Calm Calm - N/A   Clear